Location: Burbank
(38.7788°N, 114.0429°W)
Time: 02:14:03
(UTC+00:00)

Tiros 1 despin weight - Pass Details

Date: 11 May 2026
Orbit: 554 x 591 km, 48.2° (Epoch: 6 June)

Event Time Altitude Azimuth Distance (km) Brightness Sun altitude
Rises 15:11:30 0° 263° (W) 2,738 ? 30.2°
Reaches altitude 10° 15:13:54 10° 273° (W) 1,840 ? 30.7°
Maximum altitude 15:17:46 35° 340° (NNW) 907 ? 31.5°
Drops below altitude 10° 15:21:38 10° 47° (NE) 1,835 ? 32.2°
Sets 15:24:02 0° 56° (ENE) 2,730 ? 32.7°
